Location: Puketoi
(40.5833°S, 176.0167°E)
Time: 15:06:10
(UTC+00:00)

CZ-4B R/B - Pass Details

Date: 08 February 2023
Orbit: 491 x 630 km, 97.9° (Epoch: 22 March)

Event Time Altitude Azimuth Distance (km) Brightness Sun altitude
Rises 17:01:58 0° 19° (NNE) 2,839 7.4 -6.2°
Reaches altitude 10° 17:04:10 10° 20° (NNE) 1,925 6.6 -5.8°
Maximum altitude 17:08:20 73° 105° (ESE) 612 4.3 -5.1°
Drops below altitude 10° 17:12:22 10° 188° (S) 1,868 6.7 -4.4°
Sets 17:14:29 0° 190° (S) 2,748 7.6 -4.0°
